Total_Precipitation_Accumulation
1.29 1.32 1.31 1.28 1.32 1.31 1.21 1.07 1.02 1.00 0.96 0.96 1.02 1.08 1.09 1.10 1.14 1.20 1.24 1.45 1.55 1.53 1.51 1.53 1.48 1.46 1.45 1.40 1.46 1.58 1.70 1.70 1.45 1.22 1.25 1.27 1.24 1.11 1.05 0.99 0.89 0.81 0.65
1.23 1.40 1.46 1.39 1.34 1.25 1.10 1.02 1.02 1.01 0.99 1.00 1.04 1.05 0.98 0.96 1.06 1.10 1.16 1.31 1.38 1.36 1.33 1.34 1.22 1.21 1.24 1.20 1.28 1.34 1.42 1.60 1.57 1.43 1.49 1.51 1.47 1.36 1.30 1.24 1.06 0.85 0.70
1.19 1.51 1.65 1.60 1.47 1.30 1.12 0.99 0.96 0.97 1.00 1.02 1.01 1.02 1.01 1.08 1.17 1.19 1.19 1.18 1.18 1.20 1.30 1.35 1.20 1.15 1.12 1.13 1.15 1.12 1.16 1.33 1.47 1.48 1.51 1.59 1.59 1.58 1.44 1.28 1.19 1.06 0.82
1.08 1.29 1.39 1.29 1.20 1.13 1.00 0.90 0.87 0.89 0.95 0.97 0.99 1.00 1.05 1.14 1.19 1.23 1.23 1.17 1.09 1.04 1.08 1.11 1.09 1.08 1.08 1.18 1.18 1.16 1.17 1.28 1.40 1.46 1.52 1.66 1.68 1.59 1.55 1.38 1.35 1.24 1.09
0.82 0.92 1.01 0.98 0.91 0.88 0.86 0.84 0.83 0.91 0.92 0.99 1.05 1.06 1.04 1.02 0.97 0.96 0.99 0.99 1.03 0.98 0.91 0.90 0.92 1.00 1.02 1.03 0.99 1.11 1.21 1.24 1.27 1.31 1.36 1.54 1.73 1.78 1.59 1.48 1.54 1.51 1.36
0.68 0.77 0.90 0.99 0.97 0.90 0.87 0.88 0.87 0.94 0.97 1.01 1.03 1.10 1.10 0.92 0.99 0.98 0.94 1.02 1.09 1.07 1.04 0.97 0.91 0.89 0.85 0.81 0.79 0.85 0.99 1.10 1.14 1.20 1.24 1.39 1.59 1.78 1.82 1.76 1.68 1.61 1.56
0.71 0.80 0.91 1.03 1.08 1.03 0.94 0.98 0.99 1.04 1.10 1.08 1.07 1.07 1.08 1.11 1.14 1.02 0.88 0.85 0.91 0.97 1.00 1.00 0.86 0.78 0.84 0.81 0.83 0.79 0.79 0.88 0.97 1.09 1.17 1.21 1.35 1.57 1.77 1.72 1.77 1.79 1.77
0.78 0.88 1.03 1.12 1.11 1.10 1.12 1.16 1.19 1.23 1.26 1.24 1.20 1.14 1.17 1.17 1.09 0.92 0.83 0.75 0.79 0.85 0.91 0.96 0.95 0.86 0.83 0.89 0.92 0.89 0.82 0.79 0.81 0.84 0.91 1.05 1.24 1.48 1.74 1.72 1.71 1.77 1.81
0.93 0.98 1.09 1.21 1.24 1.27 1.32 1.33 1.37 1.42 1.37 1.32 1.30 1.33 1.30 1.31 1.26 1.05 0.97 0.90 0.96 1.00 1.02 1.01 0.99 0.91 0.96 0.92 0.91 0.92 0.87 0.82 0.78 0.79 0.79 0.94 1.15 1.25 1.46 1.58 1.55 1.56 1.48
1.10 1.20 1.36 1.51 1.53 1.54 1.63 1.69 1.64 1.57 1.48 1.49 1.47 1.47 1.49 1.54 1.63 1.40 1.25 1.16 1.21 1.20 1.24 1.15 1.05 0.97 0.97 0.91 0.85 0.87 0.83 0.82 0.88 0.85 0.81 0.82 0.90 1.07 1.22 1.33 1.44 1.50 1.38
1.20 1.35 1.57 1.71 1.79 1.84 1.94 1.97 1.94 1.91 1.88 1.82 1.71 1.67 1.68 1.73 1.83 1.62 1.46 1.38 1.42 1.47 1.44 1.31 1.27 1.20 1.04 0.97 0.89 0.88 0.87 0.88 0.95 0.97 0.96 0.96 0.99 1.06 1.12 1.19 1.36 1.48 1.45
1.25 1.39 1.52 1.66 1.71 1.78 1.99 2.06 2.10 2.11 2.05 1.98 1.92 1.78 1.75 1.73 1.65 1.51 1.36 1.30 1.41 1.56 1.62 1.53 1.44 1.32 1.10 1.01 0.91 0.87 0.86 0.80 0.80 0.90 0.93 0.93 0.94 0.94 1.00 1.13 1.28 1.35 1.40
1.34 1.47 1.59 1.68 1.76 1.85 1.89 1.88 1.91 1.97 1.97 1.90 1.91 1.83 1.76 1.74 1.69 1.42 1.21 1.13 1.17 1.28 1.45 1.51 1.39 1.22 1.05 0.92 0.88 0.84 0.76 0.67 0.69 0.75 0.77 0.78 0.79 0.85 0.99 1.16 1.34 1.41 1.36
1.43 1.48 1.56 1.68 1.71 1.74 1.86 1.93 1.98 2.07 2.14 2.05 1.94 1.85 1.79 1.72 1.62 1.43 1.24 1.14 1.18 1.27 1.37 1.43 1.30 1.17 1.02 0.94 0.86 0.78 0.72 0.76 0.79 0.81 0.82 0.87 0.93 0.99 1.04 1.11 1.21 1.31 1.33
1.32 1.38 1.43 1.48 1.56 1.64 1.70 1.77 1.77 1.83 1.81 1.78 1.73 1.71 1.69 1.64 1.49 1.40 1.29 1.18 1.23 1.33 1.39 1.46 1.36 1.31 1.23 1.14 1.07 1.00 0.98 0.99 0.93 0.91 0.96 0.97 0.98 1.03 1.05 1.07 1.19 1.20 1.15
1.37 1.39 1.35 1.34 1.39 1.45 1.50 1.48 1.44 1.36 1.32 1.27 1.27 1.28 1.26 1.21 1.14 1.03 0.99 0.99 1.05 1.19 1.26 1.42 1.49 1.46 1.41 1.33 1.21 1.11 1.06 1.01 0.95 0.97 1.00 1.02 1.02 1.04 1.09 1.08 1.14 1.17 1.09
1.23 1.25 1.24 1.24 1.31 1.34 1.36 1.39 1.42 1.34 1.22 1.14 1.10 1.06 1.08 1.05 1.01 0.98 0.99 1.03 1.04 1.09 1.15 1.31 1.37 1.33 1.31 1.25 1.13 1.02 0.97 0.98 1.05 1.07 1.08 1.07 1.11 1.13 1.18 1.16 1.13 1.18 1.14
1.06 1.10 1.14 1.18 1.23 1.30 1.35 1.42 1.52 1.61 1.55 1.37 1.18 1.07 0.98 0.93 0.87 0.86 0.88 0.89 0.90 0.93 1.05 1.18 1.21 1.16 1.14 1.11 1.07 1.02 1.00 1.05 1.14 1.12 1.12 1.12 1.14 1.15 1.17 1.18 1.14 1.11 1.11
0.95 0.96 0.97 1.03 1.08 1.14 1.17 1.23 1.34 1.45 1.48 1.38 1.23 1.10 0.98 0.90 0.80 0.74 0.73 0.72 0.80 0.91 1.07 1.12 1.14 1.13 1.07 1.03 1.03 0.98 0.97 1.00 1.08 1.14 1.12 1.13 1.12 1.14 1.13 1.10 1.13 1.12 1.03
0.93 0.90 0.88 0.90 0.91 0.91 0.94 1.01 1.11 1.21 1.27 1.21 1.12 1.00 0.89 0.84 0.74 0.68 0.62 0.62 0.70 0.79 0.89 0.96 1.00 0.97 0.91 0.93 0.95 0.93 0.91 0.98 1.08 1.11 1.08 1.11 1.15 1.15 1.07 1.04 1.06 1.09 1.02
0.91 0.85 0.80 0.79 0.78 0.79 0.84 0.89 0.93 0.96 1.02 0.98 0.90 0.77 0.70 0.66 0.60 0.56 0.56 0.60 0.68 0.78 0.84 0.89 0.89 0.86 0.85 0.88 0.93 0.95 0.93 0.98 1.06 1.08 1.08 1.12 1.16 1.16 1.09 1.06 1.04 1.05 1.06
0.85 0.75 0.68 0.65 0.68 0.71 0.73 0.80 0.85 0.85 0.83 0.79 0.74 0.60 0.57 0.55 0.49 0.46 0.49 0.55 0.62 0.73 0.75 0.74 0.77 0.78 0.76 0.78 0.84 0.91 0.95 1.01 1.08 1.10 1.08 1.10 1.14 1.14 1.16 1.13 1.12 1.09 1.09
0.86 0.73 0.64 0.59 0.60 0.62 0.65 0.74 0.81 0.78 0.70 0.65 0.60 0.57 0.56 0.58 0.49 0.46 0.51 0.59 0.66 0.68 0.65 0.66 0.70 0.74 0.75 0.76 0.76 0.84 0.91 0.97 1.02 1.03 1.09 1.13 1.11 1.09 1.10 1.05 1.05 1.06 1.06
0.82 0.73 0.64 0.55 0.55 0.60 0.63 0.69 0.73 0.73 0.66 0.61 0.58 0.56 0.57 0.60 0.56 0.54 0.59 0.70 0.69 0.63 0.61 0.64 0.67 0.70 0.73 0.78 0.78 0.78 0.82 0.87 0.87 0.87 0.90 0.95 0.97 0.99 1.01 1.00 1.00 0.99 1.01
0.80 0.72 0.62 0.53 0.51 0.55 0.58 0.64 0.68 0.69 0.65 0.59 0.58 0.59 0.62 0.65 0.62 0.61 0.64 0.66 0.62 0.58 0.54 0.58 0.64 0.66 0.69 0.71 0.73 0.73 0.73 0.70 0.70 0.73 0.76 0.80 0.85 0.93 0.99 1.00 1.00 0.99 0.98
0.73 0.66 0.60 0.53 0.47 0.47 0.54 0.62 0.63 0.63 0.61 0.57 0.57 0.59 0.58 0.58 0.55 0.51 0.49 0.49 0.49 0.49 0.49 0.54 0.60 0.62 0.66 0.67 0.60 0.58 0.55 0.50 0.52 0.61 0.64 0.72 0.83 0.90 0.94 0.99 0.98 0.99 0.98